EW5286 Weather Reports


time (UTC)temp
C
wind
direction
speed
KPH
gust
KPH
rain 1hr
cm
rain 24hr
cm
rain mn
cm
humidity
%
barometer
mb
20260510072432 18 238 4.8 6.4 0.00 0.00 0.00 92 1012.4
20260510071938 18 231 4.8 6.4 0.00 0.00 0.00 92 1012.3
20260510071555 18 243 3.2 6.4 0.00 0.00 0.00 91 1011.4
20260510071438 18 235 4.8 6.4 0.00 0.00 0.00 91 1012.5
20260510070930 18 244 4.8 6.4 0.00 0.00 0.00 92 1012.4
20260510070440 18 239 3.2 6.4 0.00 0.00 0.00 91 1012.4
20260510070100 18 241 3.2 6.4 0.00 0.00 0.00 91 1011.5
20260510065922 18 235 4.8 6.4 0.00 0.00 0.00 91 1012.6
20260510065453 18 244 4.8 8.0 0.00 0.00 0.00 91 1012.6
20260510064925 18 238 4.8 8.0 0.00 0.00 0.00 91 1012.7
20260510064601 18 242 4.8 6.4 0.00 0.00 0.00 90 1011.6
20260510064427 18 240 4.8 6.4 0.00 0.00 0.00 90 1012.5
20260510063938 19 243 4.8 6.4 0.00 0.00 0.00 90 1012.5
20260510063430 19 247 4.8 6.4 0.00 0.00 0.00 90 1012.7
20260510063057 18 243 3.2 6.4 0.00 0.00 0.00 90 1011.7
20260510062931 19 238 4.8 6.4 0.00 0.00 0.00 89 1012.6
20260510062423 19 255 4.8 6.4 0.00 0.00 0.00 90 1012.6
20260510061925 19 244 4.8 6.4 0.00 0.00 0.00 90 1012.6
20260510061501 18 239 3.2 4.8 0.00 0.00 0.00 89 1011.7
20260510061435 19 243 3.2 4.8 0.00 0.00 0.00 89 1012.7
20260510060926 19 238 3.2 4.8 0.00 0.00 0.00 88 1012.8
20260510060429 19 236 3.2 6.4 0.00 0.00 0.00 88 1012.9
20260510060009 19 234 1.6 6.4 0.00 0.00 0.00 88 1011.8
20260510055937 19 242 3.2 6.4 0.00 0.00 0.00 88 1012.8
20260510055429 19 240 3.2 4.8 0.00 0.00 0.00 88 1012.7
20260510054927 19 238 4.8 4.8 0.00 0.00 0.00 87 1012.6
20260510054520 19 240 3.2 4.8 0.00 0.00 0.00 87 1011.6
20260510054436 20 242 4.8 4.8 0.00 0.00 0.00 87 1012.6
20260510053948 20 238 4.8 4.8 0.00 0.00 0.00 87 1012.7
20260510053439 20 236 4.8 4.8 0.00 0.00 0.00 87 1012.6
20260510053047 19 240 3.2 4.8 0.00 0.00 0.00 86 1011.6
20260510052949 20 240 3.2 4.8 0.00 0.00 0.00 86 1012.6
20260510052432 20 233 3.2 6.4 0.00 0.00 0.00 86 1012.5
20260510051943 20 234 3.2 6.4 0.00 0.00 0.00 86 1012.4
20260510051535 19 232 3.2 6.4 0.00 0.00 0.00 86 1011.3
20260510051431 20 233 3.2 6.4 0.00 0.00 0.00 86 1012.2
20260510050934 20 229 4.8 6.4 0.00 0.00 0.00 85 1012.2
20260510050426 20 236 3.2 6.4 0.00 0.00 0.00 85 1012.1
20260510050041 20 238 3.2 4.8 0.00 0.00 0.00 85 1011.1
20260510045931 20 236 3.2 4.8 0.00 0.00 0.00 85 1012.1
20260510045433 20 239 4.8 4.8 0.00 0.00 0.00 84 1012.2
20260510044921 20 231 3.2 4.8 0.00 0.00 0.00 84 1012.1
20260510044555 20 236 3.2 6.4 0.00 0.00 0.00 83 1011.1
20260510044423 20 235 3.2 6.4 0.00 0.00 0.00 83 1012.0
20260510043934 20 236 3.2 6.4 0.00 0.00 0.00 83 1012.0
20260510043425 20 231 3.2 9.7 0.00 0.00 0.00 82 1012.1
20260510043049 20 242 3.2 9.7 0.00 0.00 0.00 82 1011.1
20260510042951 20 243 4.8 9.7 0.00 0.00 0.00 81 1012.1
20260510042433 20 240 4.8 9.7 0.00 0.00 0.00 80 1012.2
20260510041926 20 236 4.8 8.0 0.00 0.00 0.00 80 1012.1
20260510041537 20 234 3.2 9.7 0.00 0.00 0.00 79 1011.1
20260510041435 20 246 4.8 9.7 0.00 0.00 0.00 79 1012.1
20260510040947 21 219 4.8 11.3 0.00 0.00 0.00 78 1012.0
20260510040429 21 248 4.8 12.9 0.00 0.00 0.00 78 1012.0
20260510040023 20 238 6.4 14.5 0.00 0.00 0.00 77 1011.0
20260510035939 21 236 8.0 14.5 0.00 0.00 0.00 77 1012.0
20260510035428 21 255 6.4 14.5 0.00 0.00 0.00 76 1012.1
20260510034931 21 217 8.0 12.9 0.00 0.00 0.00 76 1012.0
20260510034511 20 226 4.8 12.9 0.00 0.00 0.00 74 1011.0
20260510034442 21 236 6.4 12.9 0.00 0.00 0.00 74 1011.9
20260510033932 21 210 6.4 12.9 0.00 0.00 0.00 74 1012.1
20260510033443 21 238 6.4 11.3 0.00 0.00 0.00 73 1012.0
20260510033102 21 209 4.8 12.9 0.00 0.00 0.00 72 1011.0
20260510032943 21 181 6.4 12.9 0.00 0.00 0.00 72 1011.9
20260510032430 21 179 6.4 12.9 0.00 0.00 0.00 71 1011.9
20260510032002 21 240 4.8 14.5 0.00 0.00 0.00 70 1011.9
20260510031528 21 240 4.8 14.5 0.00 0.00 0.00 69 1010.8
20260510031431 21 261 6.4 14.5 0.00 0.00 0.00 68 1011.8
20260510030933 21 191 4.8 8.0 0.00 0.00 0.00 66 1011.7
20260510030424 22 278 3.2 9.7 0.00 0.00 0.00 64 1011.6
20260510030039 22 205 4.8 11.3 0.00 0.00 0.00 64 1010.6
20260510025934 22 183 4.8 11.3 0.00 0.00 0.00 64 1011.6
20260510025435 22 254 3.2 12.9 0.00 0.00 0.00 64 1011.5
20260510024947 22 233 3.2 12.9 0.00 0.00 0.00 64 1011.4
20260510024522 22 216 3.2 9.7 0.00 0.00 0.00 64 1010.4
20260510024436 22 181 3.2 9.7 0.00 0.00 0.00 64 1011.4
20260510023947 22 215 3.2 8.0 0.00 0.00 0.00 64 1011.3
20260510023430 22 188 1.6 9.7 0.00 0.00 0.00 63 1011.3
20260510023030 22 185 3.2 9.7 0.00 0.00 0.00 63 1010.3
20260510023000 22 214 3.2 9.7 0.00 0.00 0.00 64 1011.2
20260510022430 22 192 3.2 11.3 0.00 0.00 0.00 63 1011.2
20260510021933 22 204 1.6 11.3 0.00 0.00 0.00 64 1011.1
20260510021519 22 160 0.0 8.0 0.00 0.00 0.00 65 1010.0
20260510021424 22 153 1.6 8.0 0.00 0.00 0.00 65 1011.0
20260510020926 22 177 3.2 8.0 0.00 0.00 0.00 64 1010.9
20260510020433 22 186 0.0 8.0 0.00 0.00 0.00 64 1010.9
20260510020028 22 152 1.6 8.0 0.00 0.00 0.00 64 1009.9
20260510015943 22 138 1.6 6.4 0.00 0.00 0.00 64 1010.9
20260510015433 22 226 0.0 9.7 0.00 0.00 0.00 64 1010.8
20260510014936 23 141 0.0 9.7 0.00 0.00 0.00 64 1010.8
20260510014511 22 148 0.0 8.0 0.00 0.00 0.00 63 1009.9
20260510014426 23 189 1.6 8.0 0.00 0.00 0.00 63 1010.9
20260510013958 23 143 1.6 6.4 0.00 0.00 0.00 63 1010.7
20260510013449 23 241 0.0 6.4 0.00 0.00 0.00 63 1010.7
20260510013104 22 169 0.0 8.0 0.00 0.00 0.00 63 1009.8
20260510012931 23 220 0.0 8.0 0.00 0.00 0.00 63 1010.7
20260510012421 23 225 1.6 9.7 0.00 0.00 0.00 64 1010.6
20260510011933 23 148 1.6 9.7 0.00 0.00 0.00 64 1010.6
20260510011556 23 78 1.6 9.7 0.00 0.00 0.00 64 1009.6
20260510011432 23 243 3.2 9.7 0.00 0.00 0.00 64 1010.5
20260510010923 23 284 0.0 9.7 0.00 0.00 0.00 64 1010.5
20260510010435 23 214 1.6 9.7 0.00 0.00 0.00 63 1010.4
20260510010136 23 220 1.6 9.7 0.00 0.00 0.00 64 1009.5
20260510005945 23 186 1.6 8.0 0.00 0.00 0.00 64 1010.4
20260510005427 23 176 1.6 6.4 0.00 0.00 0.00 64 1010.4
20260510004934 23 161 3.2 8.0 0.00 0.00 0.00 64 1010.3
20260510004546 23 235 0.0 8.0 0.00 0.00 0.00 64 1009.3
20260510004443 23 206 1.6 8.0 0.00 0.00 0.00 64 1010.3
20260510003926 23 191 1.6 8.0 0.00 0.00 0.00 64 1010.2
20260510003438 23 210 1.6 6.4 0.00 0.00 0.00 64 1010.1
20260510003057 23 255 0.0 6.4 0.00 0.00 0.00 65 1009.1
20260510002937 24 175 1.6 6.4 0.00 0.00 0.00 65 1010.1
20260510002429 24 251 0.0 4.8 0.00 0.00 0.00 65 1010.1
20260510001939 24 192 1.6 4.8 0.00 0.00 0.00 65 1010.0
20260510001540 24 207 0.0 8.0 0.00 0.00 0.00 65 1009.0
20260510001448 24 207 0.0 8.0 0.00 0.00 0.00 66 1009.9
20260510000931 25 155 1.6 8.0 0.00 0.00 0.00 64 1009.9
20260510000423 25 236 1.6 9.7 0.00 0.00 0.00 65 1009.9
20260510000048 25 247 1.6 9.7 0.00 0.00 0.00 63 1008.8
20260509235924 25 219 1.6 6.4 0.00 0.00 0.00 64 1009.8
20260509235455 25 260 1.6 6.4 0.00 0.00 0.00 63 1009.8
20260509234925 25 174 1.6 9.7 0.00 0.00 0.00 63 1009.7
20260509234536 25 224 3.2 9.7 0.00 0.00 0.00 62 1008.7
20260509234435 26 193 4.8 9.7 0.00 0.00 0.00 62 1009.6
20260509233937 26 182 1.6 4.8 0.00 0.00 0.00 61 1009.6
20260509233427 26 176 0.0 4.8 0.00 0.00 0.00 61 1009.5
20260509233025 26 161 0.0 4.8 0.00 0.00 0.00 61 1008.6
20260509232952 26 231 1.6 4.8 0.00 0.00 0.00 61 1009.5
20260509232442 26 219 0.0 6.4 0.00 0.00 0.00 61 1009.5
20260509231953 26 217 1.6 6.4 0.00 0.00 0.00 60 1009.6
20260509231532 26 155 0.0 3.2 0.00 0.00 0.00 62 1008.6
20260509231442 26 155 0.0 3.2 0.00 0.00 0.00 62 1009.6
20260509230953 26 13 0.0 4.8 0.00 0.00 0.00 63 1009.5
20260509230504 26 214 0.0 4.8 0.00 0.00 0.00 62 1009.4
20260509230100 26 221 0.0 3.2 0.00 0.00 0.00 63 1008.5
20260509225942 26 192 0.0 3.2 0.00 0.00 0.00 64 1009.4
20260509225440 26 214 0.0 6.4 0.00 0.00 0.00 62 1009.5
20260509224923 26 202 3.2 6.4 0.00 0.00 0.00 63 1009.4
20260509224529 26 231 1.6 6.4 0.00 0.00 0.00 62 1008.4
20260509224432 26 231 1.6 6.4 0.00 0.00 0.00 61 1009.4
20260509223931 26 256 1.6 4.8 0.00 0.00 0.00 61 1009.3
20260509223423 26 298 0.0 1.6 0.00 0.00 0.00 62 1009.4
20260509223036 25 298 0.0 8.0 0.00 0.00 0.00 62 1008.3
20260509222953 26 290 0.0 8.0 0.00 0.00 0.00 62 1009.3
20260509222444 26 44 0.0 8.0 0.00 0.00 0.00 60 1009.3
20260509221948 26 336 1.6 4.8 0.00 0.00 0.00 58 1009.3
20260509221609 27 253 0.0 4.8 0.00 0.00 0.00 57 1008.3
20260509221445 27 268 1.6 4.8 0.00 0.00 0.00 57 1009.1
20260509220948 28 125 1.6 3.2 0.00 0.00 0.00 56 1009.1
20260509220439 28 56 1.6 4.8 0.00 0.00 0.00 54 1009.0
20260509220032 27 60 0.0 4.8 0.00 0.00 0.00 56 1008.2
20260509215928 27 69 1.6 6.4 0.00 0.00 0.00 56 1009.1
20260509215432 28 47 0.0 6.4 0.00 0.00 0.00 55 1009.1
20260509214924 27 211 1.6 4.8 0.00 0.00 0.00 53 1009.1
20260509214543 27 280 0.0 6.4 0.00 0.00 0.00 54 1008.1
20260509214455 27 246 1.6 6.4 0.00 0.00 0.00 54 1009.0
20260509213946 28 22 1.6 6.4 0.00 0.00 0.00 52 1009.1
20260509213428 28 63 1.6 4.8 0.00 0.00 0.00 50 1009.1
20260509213030 28 333 0.0 3.2 0.00 0.00 0.00 49 1008.2
20260509212934 28 335 1.6 3.2 0.00 0.00 0.00 47 1009.1
20260509212437 28 131 1.6 3.2 0.00 0.00 0.00 51 1009.1
20260509211929 27 49 1.6 4.8 0.00 0.00 0.00 50 1009.2
20260509211543 27 48 0.0 4.8 0.00 0.00 0.00 48 1008.3
20260509211439 27 48 0.0 4.8 0.00 0.00 0.00 48 1009.2
20260509210921 28 42 1.6 3.2 0.00 0.00 0.00 47 1009.3
20260509210454 27 24 1.6 4.8 0.00 0.00 0.00 47 1009.4
20260509210023 27 50 0.0 6.4 0.00 0.00 0.00 48 1008.5
20260509205921 27 51 1.6 6.4 0.00 0.00 0.00 48 1009.5
20260509205424 28 1 1.6 6.4 0.00 0.00 0.00 47 1009.4
20260509204936 28 46 1.6 9.7 0.00 0.00 0.00 45 1009.5
20260509204532 28 149 4.8 9.7 0.00 0.00 0.00 46 1008.6
20260509204446 28 217 4.8 9.7 0.00 0.00 0.00 45 1009.5
20260509203936 28 79 1.6 3.2 0.00 0.00 0.00 51 1009.6
20260509203438 28 127 0.0 3.2 0.00 0.00 0.00 49 1009.6
20260509203024 27 170 0.0 6.4 0.00 0.00 0.00 49 1008.7
20260509202948 28 177 0.0 6.4 0.00 0.00 0.00 47 1009.6
20260509202438 27 200 3.2 6.4 0.00 0.00 0.00 46 1009.8
20260509201950 27 174 3.2 6.4 0.00 0.00 0.00 50 1009.9
20260509201505 27 34 1.6 4.8 0.00 0.00 0.00 49 1009.1
20260509201448 27 70 1.6 4.8 0.00 0.00 0.00 50 1010.0
20260509200938 27 27 1.6 4.8 0.00 0.00 0.00 48 1010.1
20260509200431 27 11 1.6 4.8 0.00 0.00 0.00 50 1010.1
20260509200103 26 291 0.0 4.8 0.00 0.00 0.00 53 1009.2
20260509195930 27 73 1.6 4.8 0.00 0.00 0.00 52 1010.1
20260509195422 27 41 0.0 6.4 0.00 0.00 0.00 53 1010.1
20260509194935 27 53 3.2 6.4 0.00 0.00 0.00 53 1010.2
20260509194601 26 53 3.2 6.4 0.00 0.00 0.00 52 1009.3
20260509194435 27 54 1.6 4.8 0.00 0.00 0.00 52 1010.2
20260509193926 27 49 0.0 6.4 0.00 0.00 0.00 53 1010.3
20260509193426 27 57 4.8 6.4 0.00 0.00 0.00 51 1010.3
20260509193137 27 65 0.0 4.8 0.00 0.00 0.00 53 1009.4
20260509193005 27 68 1.6 4.8 0.00 0.00 0.00 54 1010.3
20260509192427 27 223 1.6 4.8 0.00 0.00 0.00 51 1010.3
20260509191939 27 96 0.0 1.6 0.00 0.00 0.00 56 1010.3
20260509191614 27 140 0.0 1.6 0.00 0.00 0.00 55 1009.4
20260509191439 27 141 0.0 3.2 0.00 0.00 0.00 55 1010.3
20260509190931 27 143 0.0 3.2 0.00 0.00 0.00 56 1010.4
20260509190441 27 53 0.0 3.2 0.00 0.00 0.00 58 1010.4
20260509190041 26 52 0.0 3.2 0.00 0.00 0.00 57 1009.5
20260509185922 27 52 1.6 3.2 0.00 0.00 0.00 58 1010.4
20260509185432 26 77 1.6 3.2 0.00 0.00 0.00 58 1010.4
20260509185000 26 14 0.0 4.8 0.00 0.00 0.00 61 1010.4
20260509184532 26 70 1.6 4.8 0.00 0.00 0.00 58 1009.6
20260509184428 26 304 3.2 4.8 0.00 0.00 0.00 57 1010.5
20260509183931 26 136 1.6 3.2 0.00 0.00 0.00 56 1010.6
20260509183450 26 9 0.0 4.8 0.00 0.00 0.00 58 1010.6
20260509183015 25 291 1.6 4.8 0.00 0.00 0.00 59 1009.8
20260509182930 26 281 1.6 4.8 0.00 0.00 0.00 56 1010.6
20260509182442 26 51 1.6 6.4 0.00 0.00 0.00 57 1010.7
20260509181924 25 58 3.2 6.4 0.00 0.00 0.00 57 1010.7
20260509181520 25 59 0.0 4.8 0.00 0.00 0.00 59 1009.8
20260509181435 25 61 0.0 4.8 0.00 0.00 0.00 59 1010.7
20260509180946 25 61 1.6 6.4 0.00 0.00 0.00 62 1010.7
20260509180430 25 58 1.6 6.4 0.00 0.00 0.00 61 1010.7
20260509180029 25 57 3.2 6.4 0.00 0.00 0.00 62 1009.8
20260509175959 25 58 4.8 6.4 0.00 0.00 0.00 61 1010.7
20260509175449 25 61 3.2 6.4 0.00 0.00 0.00 64 1010.8
20260509174940 25 249 1.6 6.4 0.00 0.00 0.00 63 1010.8
20260509174609 25 65 0.0 4.8 0.00 0.00 0.00 64 1010.0
20260509174421 25 60 0.0 4.8 0.00 0.00 0.00 65 1010.9
20260509173933 25 63 1.6 6.4 0.00 0.00 0.00 65 1010.9
20260509173439 25 64 3.2 6.4 0.00 0.00 0.00 66 1010.9
20260509173045 25 74 1.6 6.4 0.00 0.00 0.00 65 1010.1
20260509172921 25 55 3.2 6.4 0.00 0.00 0.00 65 1010.9
20260509172432 25 302 0.0 9.7 0.00 0.00 0.00 66 1011.0
20260509171926 25 61 4.8 9.7 0.00 0.00 0.00 65 1010.9
20260509171552 24 46 1.6 6.4 0.00 0.00 0.00 66 1010.1
20260509171425 25 62 1.6 8.0 0.00 0.00 0.00 65 1010.9
20260509170937 24 55 0.0 8.0 0.00 0.00 0.00 65 1011.0
20260509170449 24 58 4.8 8.0 0.00 0.00 0.00 67 1011.0
20260509170040 23 58 3.2 9.7 0.00 0.00 0.00 67 1010.1
20260509165958 24 67 1.6 9.7 0.00 0.00 0.00 68 1011.0
20260509165449 24 69 3.2 9.7 0.00 0.00 0.00 68 1010.9
20260509164930 24 57 3.2 8.0 0.00 0.00 0.00 69 1010.9
20260509164506 23 58 1.6 6.4 0.00 0.00 0.00 69 1010.0
20260509164421 23 57 1.6 6.4 0.00 0.00 0.00 69 1010.9
20260509163952 23 63 3.2 6.4 0.00 0.00 0.00 71 1010.8
20260509163442 23 60 3.2 6.4 0.00 0.00 0.00 71 1010.7
20260509163035 23 75 1.6 6.4 0.00 0.00 0.00 72 1009.9
20260509162926 23 86 1.6 4.8 0.00 0.00 0.00 72 1010.7
20260509162436 23 58 0.0 6.4 0.00 0.00 0.00 72 1010.8
20260509161947 23 58 3.2 6.4 0.00 0.00 0.00 71 1010.8
20260509161605 23 52 1.6 8.0 0.00 0.00 0.00 71 1010.1
20260509161428 23 54 3.2 8.0 0.00 0.00 0.00 71 1010.8
20260509161000 23 57 4.8 8.0 0.00 0.00 0.00 72 1010.8
20260509160431 23 57 1.6 4.8 0.00 0.00 0.00 73 1010.8
20260509160052 22 72 0.0 8.0 0.00 0.00 0.00 73 1010.0
20260509155932 23 68 3.2 8.0 0.00 0.00 0.00 74 1010.7
20260509155423 23 58 3.2 8.0 0.00 0.00 0.00 74 1010.7
20260509154935 22 357 1.6 8.0 0.00 0.00 0.00 75 1010.8
20260509154600 22 55 1.6 8.0 0.00 0.00 0.00 75 1009.9
20260509154436 22 49 3.2 8.0 0.00 0.00 0.00 75 1010.7
20260509153947 22 53 3.2 8.0 0.00 0.00 0.00 75 1010.7
20260509153436 22 51 0.0 3.2 0.00 0.00 0.00 75 1010.7
20260509153025 22 36 0.0 3.2 0.00 0.00 0.00 76 1010.0
20260509152926 22 46 1.6 3.2 0.00 0.00 0.00 76 1010.7
20260509152448 22 45 1.6 3.2 0.00 0.00 0.00 76 1010.8
20260509151930 22 37 0.0 3.2 0.00 0.00 0.00 78 1010.7
20260509151524 21 359 0.0 1.6 0.00 0.00 0.00 77 1010.0
20260509151420 21 295 0.0 1.6 0.00 0.00 0.00 77 1010.7
20260509150923 21 46 0.0 1.6 0.00 0.00 0.00 77 1010.8
20260509150435 21 46 0.0 1.6 0.00 0.00 0.00 78 1010.8
20260509150038 20 328 0.0 3.2 0.00 0.00 0.00 79 1010.0
20260509145946 21 60 0.0 3.2 0.00 0.00 0.00 80 1010.7
20260509145428 20 60 0.0 3.2 0.00 0.00 0.00 80 1010.7
20260509144939 20 75 0.0 1.6 0.00 0.00 0.00 81 1010.7
20260509144541 20 78 0.0 1.6 0.00 0.00 0.00 78 1010.0
20260509144419 20 18 0.0 1.6 0.00 0.00 0.00 78 1010.7
20260509143931 20 281 0.0 1.6 0.00 0.00 0.00 79 1010.8
20260509143423 20 273 0.0 1.6 0.00 0.00 0.00 82 1010.8
20260509143047 20 276 0.0 1.6 0.00 0.00 0.00 82 1010.2
20260509142923 20 276 0.0 1.6 0.00 0.00 0.00 82 1010.9
20260509142435 20 293 0.0 1.6 0.00 0.00 0.00 81 1011.0
20260509141928 19 293 0.0 0.0 0.00 0.00 0.00 82 1011.0
20260509141554 18 295 0.0 1.6 0.00 0.00 0.00 82 1010.4
20260509141427 19 295 0.0 1.6 0.00 0.00 0.00 82 1011.1
20260509140939 18 262 0.0 1.6 0.00 0.00 0.00 84 1011.1
20260509140450 18 262 0.0 0.0 0.00 0.00 0.00 84 1011.1
20260509135959 18 184 0.0 0.0 0.00 0.00 0.00 86 1011.1
20260509135420 18 173 0.0 3.2 0.00 0.00 0.00 87 1011.2
20260509134928 18 172 0.0 3.2 0.00 0.00 0.00 88 1011.1
20260509134548 17 174 0.0 0.0 0.00 0.00 0.00 87 1010.4
20260509134427 17 174 0.0 0.0 0.00 0.00 0.00 88 1011.1
20260509133938 17 174 0.0 0.0 0.00 0.00 0.00 88 1011.1
20260509133431 17 174 0.0 0.0 0.00 0.00 0.00 88 1011.1
20260509133103 17 174 0.0 0.0 0.00 0.00 0.00 90 1010.3
20260509132933 17 174 0.0 0.0 0.00 0.00 0.00 90 1011.0
20260509132423 16 174 0.0 0.0 0.00 0.00 0.00 90 1010.9
20260509131925 16 174 0.0 0.0 0.00 0.00 0.00 90 1010.9
20260509131610 16 174 0.0 0.0 0.00 0.00 0.00 90 1010.2
20260509131444 16 174 0.0 1.6 0.00 0.00 0.00 90 1010.9
20260509130946 16 174 0.0 1.6 0.00 0.00 0.00 90 1010.9
20260509130506 16 188 0.0 3.2 0.00 0.00 0.00 90 1010.8
20260509130008 15 188 0.0 3.2 0.00 0.00 0.00 90 1010.2
20260509125927 16 188 0.0 3.2 0.00 0.00 0.00 90 1010.8
20260509125438 16 181 1.6 1.6 0.00 0.00 0.00 90 1010.8
20260509124921 15 172 0.0 3.2 0.00 0.00 0.00 91 1010.7
20260509124623 15 172 0.0 3.2 0.00 0.00 0.00 91 1010.1
20260509124537 15 171 1.6 4.8 0.00 0.00 0.00 91 1010.7
20260509123928 15 167 3.2 4.8 0.00 0.00 0.00 91 1010.7
20260509123431 15 169 3.2 4.8 0.00 0.00 0.00 92 1010.7
20260509123009 15 187 1.6 4.8 0.00 0.00 0.00 92 1010.1
20260509122941 15 209 3.2 4.8 0.00 0.00 0.00 92 1010.8
20260509122452 15 167 3.2 4.8 0.00 0.00 0.00 92 1010.7
20260509121943 15 181 3.2 4.8 0.00 0.00 0.00 92 1010.7
20260509121600 14 172 3.2 6.4 0.00 0.00 0.00 92 1010.0
20260509121424 15 198 3.2 6.4 0.00 0.00 0.00 92 1010.6
20260509120936 15 177 4.8 6.4 0.00 0.00 0.00 91 1010.6
20260509120448 15 228 1.6 1.6 0.00 0.00 0.00 91 1010.5
20260509120005 15 52 0.0 0.0 0.00 0.00 0.00 91 1009.7
20260509115928 15 52 0.0 0.0 0.00 0.00 0.00 91 1010.3
20260509115440 15 52 0.0 1.6 0.00 0.00 0.00 91 1010.2
20260509114950 15 52 0.0 1.6 0.00 0.00 0.00 91 1010.0
20260509114511 15 52 0.0 1.6 0.00 0.00 0.00 92 1009.3
20260509114432 15 52 0.0 1.6 0.00 0.00 0.00 92 1010.0
20260509113943 15 52 0.0 1.6 0.00 0.00 0.00 90 1010.0
20260509113425 15 52 0.0 0.0 0.00 0.00 0.00 90 1009.9
20260509113114 15 52 0.0 1.6 0.00 0.00 0.00 91 1009.1
20260509112933 15 52 0.0 3.2 0.00 0.00 0.00 91 1009.8
20260509112425 15 52 0.0 4.8 0.00 0.00 0.00 91 1009.7
20260509111923 15 51 3.2 4.8 0.00 0.00 0.00 91 1009.6
20260509111507 15 51 3.2 6.4 0.00 0.00 0.00 91 1008.9
20260509111433 15 49 4.8 6.4 0.00 0.00 0.00 91 1009.6
20260509110943 15 51 4.8 6.4 0.00 0.00 0.00 91 1009.5
20260509110455 15 54 3.2 4.8 0.00 0.00 0.00 91 1009.5
20260509110057 15 56 3.2 4.8 0.00 0.00 0.00 91 1008.7
20260509105942 15 56 1.6 4.8 0.00 0.00 0.00 91 1009.4
20260509105424 15 58 3.2 4.8 0.00 0.00 0.00 90 1009.1
20260509104956 15 61 3.2 4.8 0.00 0.00 0.00 90 1009.0
20260509104524 15 53 1.6 4.8 0.00 0.00 0.00 90 1008.4
20260509104425 15 58 3.2 4.8 0.00 0.00 0.00 90 1009.0
20260509103927 15 55 3.2 4.8 0.00 0.00 0.00 90 1008.9
20260509103439 15 37 4.8 4.8 0.00 0.00 0.00 89 1008.9
20260509103032 15 53 3.2 4.8 0.00 0.00 0.00 89 1008.3
20260509102930 15 55 3.2 4.8 0.00 0.00 0.00 89 1008.8
20260509102432 16 54 3.2 6.4 0.00 0.00 0.00 89 1008.9
20260509101943 16 56 4.8 6.4 0.00 0.00 0.00 89 1008.9
20260509101520 15 53 3.2 6.4 0.00 0.00 0.00 89 1008.3
20260509101432 16 58 3.2 6.4 0.00 0.00 0.00 89 1008.9
20260509100939 16 56 1.6 6.4 0.00 0.00 0.00 89 1008.8
20260509100450 15 52 3.2 8.0 0.00 0.00 0.00 88 1008.8
20260509100006 15 57 3.2 8.0 0.00 0.00 0.00 89 1008.2
20260509095931 15 60 3.2 8.0 0.00 0.00 0.00 88 1008.8
20260509095443 15 58 3.2 8.0 0.00 0.00 0.00 89 1008.7
20260509094925 15 52 4.8 8.0 0.00 0.00 0.00 89 1008.6
20260509094511 15 54 3.2 8.0 0.00 0.00 0.00 88 1008.0
20260509094453 16 53 4.8 8.0 0.00 0.00 0.00 87 1008.6
20260509093943 16 48 3.2 4.8 0.00 0.00 0.00 86 1008.7
20260509093434 16 44 1.6 3.2 0.00 0.00 0.00 86 1008.8
20260509093022 16 44 0.0 3.2 0.00 0.00 0.00 85 1008.4
20260509092924 16 44 0.0 1.6 0.00 0.00 0.00 85 1009.0
20260509092426 16 35 0.0 1.6 0.00 0.00 0.00 85 1009.0
20260509091937 16 41 0.0 1.6 0.00 0.00 0.00 86 1009.0
20260509091530 16 34 0.0 4.8 0.00 0.00 0.00 87 1008.5
20260509091427 16 6 0.0 4.8 0.00 0.00 0.00 87 1009.1
20260509090927 16 51 0.0 4.8 0.00 0.00 0.00 87 1009.1
20260509090439 16 34 0.0 0.0 0.00 0.00 0.00 86 1009.1
20260509090035 16 34 0.0 0.0 0.00 0.00 0.00 86 1008.5
20260509085945 16 34 0.0 0.0 0.00 0.00 0.00 86 1009.1
20260509085435 16 34 0.0 1.6 0.00 0.00 0.00 86 1009.0
20260509084937 16 34 0.0 3.2 0.00 0.00 0.00 86 1009.0
20260509084530 16 34 0.0 3.2 0.00 0.00 0.00 86 1008.3
20260509084427 16 34 0.0 3.2 0.00 0.00 0.00 86 1008.9
20260509083929 16 355 0.0 4.8 0.00 0.00 0.00 87 1008.8
20260509083441 16 49 0.0 4.8 0.00 0.00 0.00 87 1008.8
20260509083036 15 65 1.6 4.8 0.00 0.00 0.00 87 1008.2
20260509082931 16 41 3.2 4.8 0.00 0.00 0.00 87 1008.7
20260509082441 16 58 0.0 6.4 0.00 0.00 0.00 88 1008.8
20260509081924 15 94 3.2 6.4 0.00 0.00 0.00 89 1008.8
20260509081517 15 78 1.6 6.4 0.00 0.00 0.00 89 1008.3
20260509081434 15 44 3.2 4.8 0.00 0.00 0.00 89 1008.9
20260509080946 15 58 1.6 3.2 0.00 0.00 0.00 88 1008.9
20260509080429 15 236 0.0 4.8 0.00 0.00 0.00 88 1008.9
20260509080034 15 249 0.0 6.4 0.00 0.00 0.00 88 1008.3
20260509075936 15 248 3.2 6.4 0.00 0.00 0.00 88 1008.9
20260509075428 15 247 4.8 8.0 0.00 0.00 0.00 88 1008.8
20260509074930 15 236 6.4 8.0 0.00 0.00 0.00 88 1008.9
20260509074511 15 248 4.8 8.0 0.00 0.00 0.00 88 1008.4
20260509074440 15 235 6.4 8.0 0.00 0.00 0.00 88 1009.0
20260509073948 15 237 6.4 8.0 0.00 0.00 0.00 88 1009.0
20260509073438 15 238 6.4 9.7 0.00 0.00 0.00 88 1008.9
20260509073101 15 230 4.8 9.7 0.00 0.00 0.00 88 1008.3
20260509073009 15 247 8.0 9.7 0.00 0.00 0.00 88 1008.9